www.pogodaiklimat.ru

Погода и климат >> Архив погоды >> Россия >> Калмыкия >> Кетченеры


ПОГОДА в Кетченерах

  • Прогноз погоды в Кетченерах
  • Монитор погоды в Кетченерах

АРХИВ ПОГОДЫ в Кетченерах

Время (UTC), дата Ветер
(напр.,м/с)
 
Видим.   Явления Облачность Т
(С)
Тd
(С)
f
(%)
Тe
(С)
Тes
(С)
Комфортность P
(гПа)
Po
(гПа)
Тmin
(С)
Tmax
(С)
R
(мм)
R24
(мм)
S
(см)
21 15.09 З 2 20 км ясно +9.4 +1.7 59 +8 +8 1020.1 1013.0
03 16.09 З 1 20 км ясно +5.5 -0.3 66 +5 +5 1020.0 1012.8 +5.3
09 16.09 ЮЗ 3 20 км ясно +23.4 -1.6 19 +22 +31 комфорт 1016.3 1009.5
15 16.09 З 3
{10}
20 км ясно +23.4 +0.3 22 +22 +22 комфорт 1012.0 1005.3 +25.8
21 16.09 З 1 20 км ясно +17.0 +3.5 41 +18 +18 1011.4 1004.5
03 17.09 СЗ 2 20 км ясно +10.9 +0.1 47 +10 +10 1010.7 1003.7 +10.4
09 17.09 З 5-11
{12}
20 км пыльный позёмок ясно +26.4 +1.8 20 +25 +30 комфорт 1008.5 1001.9
15 17.09 З 2
{11}
20 км 4/3 600 м
[Sc Ac trans Ci fib]
+25.1 +4.2 26 +24 +24 комфорт 1006.4 999.8 +27.8
21 17.09 З 2 20 км 10/10 600 м
[Cb calv]
+17.2 +11.6 70 +18 +18 1008.9 1002.1
03 18.09 ЮЗ 1 20 км {ливн. осадки} 8/5 600 м
[Cb calv Ac trans Ci fib]
+14.6 +12.5 87 +15 +15 1009.9 1003.1 +14.5
09 18.09 ЮЗ 6-12
{14}
20 км пыльный позёмок 8/6 600 м
[Cb calv Ac trans]
+22.8 +13.5 56 +26 +27 жарко 1009.3 1002.6
15 18.09 Ю 5-10
{13}
20 км 9/9 600 м
[Cb calv]
+25.6 +11.1 40 +27 +27 жарко 1005.1 998.5 +26.1
21 18.09 З 6-13
{19}
20 км {ливн. осадки} 10/10 600 м
[Cb calv]
+16.0 +10.9 72 +15 +15 1009.6 1002.7
03 19.09 З 3 20 км 1/1 600 м
[Sc]
+10.1 +4.5 68 +8 +8 1014.9 1007.8 +10.1 3
09 19.09 З 5
{12}
20 км ясно +16.9 +2.5 38 +16 +22 1017.7 1010.8
15 19.09 З 2
{10}
20 км ясно +15.5 +3.3 44 +16 +16 1019.0 1012.1 +18.8
21 19.09 З 1 20 км ясно +6.2 +4.2 87 +5 +5 1020.1 1012.9
03 20.09 штиль 0 20 км 10/0
[Ac trans Ci fib]
+5.3 +3.7 89 +4 +4 1020.3 1013.1 +5.2
09 20.09 ЮВ 2 20 км 10/10 600 м
[Cb calv]
+15.2 +3.8 46 +15 +15 1018.0 1011.1
15 20.09 Ю 1 10 км слаб. ливневой дождь 10/10 300 м
[Cb calv]
+11.5 +9.4 87 +11 +11 1016.6 1009.6 +15.5 1
21 20.09 В 1 4000 м ливневой дождь 10/10 300 м
[Cb calv]
+8.8 +7.8 93 +8 +8 1015.1 1008.1
03 21.09 СЗ 2 2000 м слаб. ливневой дождь 10/10 300 м
[Cb calv]
+8.7 +8.3 97 +7 +7 1014.0 1006.9 +8.6 17
09 21.09 З 3 20 км 9/9 600 м
[Cb calv]
+12.6 +7.0 69 +11 +12 1014.7 1007.7
15 21.09 СЗ 3 10 км слаб. ливневой дождь 10/10 300 м
[Cb calv]
+11.5 +5.2 65 +10 +10 1015.2 1008.2 +15.1 1
21 21.09 З 2 20 км 3/0
[Ac trans Ci fib]
+7.5 +5.8 89 +5 +5 1015.6 1008.5
03 22.09 З 4 4000 м дымка ясно +5.6 +4.3 91 +2 +2 1017.0 1009.9 +5.6 1
09 22.09 ЮЗ 9-15
{15}
20 км 8/4 1000 м
[Cu hum Ac trans Ci fib]
+14.4 +2.5 45 +12 +13 1015.1 1008.1
15 22.09 З 8-17
{20}
20 км {ливн. осадки} 10/10 600 м
[Cb calv]
+14.1 +6.6 61 +12 +12 1011.4 1004.5 +15.8

 

Местоположение метеостанции Кетченеры (Калмыкия, Россия): широта 47.32 долгота 44.57 высота над уровнем моря 58 м.

В архиве по умолчанию представлена погода в Кетченерах за последнюю неделю. Архивные данные за месяц целиком и за предыдущие месяцы, начиная с января 2011 года, Вы можете получить, выбрав интересующий диапазон дат из раскрывающегося списка и нажав кнопку "Ввод!".


*Определитесь, кто Вы:
робот инопланетянин человек

Внимание! Время в таблицах - всемирное. Для получения местного времени необходимо прибавить поправку, которая равна 3 ч.

Смотрите также архив погоды в соседних городах и на ближайших метеорологических станциях:

Погода в Малых Дербетах (Калмыкия, Россия) (69 км)
Погода в Элисте (Калмыкия, Россия) (107 км)
Погода в Ремонтном (Ростовская область, Россия) (108 км)
Погода в Котельниково (Волгоградская область, Россия) (112 км)
Погода в Юсте (Калмыкия, Россия) (134 км)
Погода в Яшкуле (Калмыкия, Россия) (140 км)
Погода в Черный Яр (Астраханская область, Россия) (143 км)
Погода в Волгограде город (Волгоградская область, Россия) (150 км)
Погода в Утте (Калмыкия, Россия) (153 км)
Погода в Нижнем Чире (Волгоградская область, Россия) (156 км)

Пояснения к столбцам:

Ветер - указаны скорость ветра в м/с - средняя за 10 мин, порывы в срок и между сроками (в фигурных скобках) и направление, откуда дует ветер: С - северный, СВ - северо-восточный, В - восточный, ЮВ - юго-восточный, Ю - южный, ЮЗ - юго-западный, З - западный, СЗ - северо-западный.
Видимость - горизонтальная дальность видимости в метрах или километрах. При видимости от 1 до 10 км при отсутствии осадков обычно наблюдается дымка, при ухудшении видимости до 1 км и менее - туман. В сухую погоду видимость может ухудшаться дымом, пылью или мглою.
Явления - указаны атмосферные явления, наблюдавшиеся в срок или в последний час перед сроком; фигурными скобками обозначены явления, наблюдавшиеся между сроками (за 1-3 часа до срока); квадратными скобками обозначены град или гололедные отложения с указанием их диаметра в мм.
Облачность - указаны через наклонную черту общая и нижняя облачность в баллах и высота нижней границы облаков в метрах; квадратными скобками обозначены формы облаков: Ci - перистые, Cs - перисто-слоистые, Cc - перисто-кучевые, Ac - высококучевые, As - высокослоистые, Sc - слоисто-кучевые, Ns - слоисто-дождевые, Cu - кучевые, Cb - кучево-дождевые. Подробнее классификацию облаков см. в Атласе облаков (PDF).
T - Температура воздуха - температура, измеренная на высоте 2 м над землей.
Td - Температура точки росы - температура, при понижении до которой содержащийся в воздухе водяной пар достигнет насыщения.
f - Относительная влажность воздуха - влажноcть воздуха, измеренная на высоте 2 м над землей.
Te - Эффективная температура - температура, которую ощущает одетый по сезону человек в тени. Характеристика душности погоды. При расчете учитывается влияние влажности воздуха и скорости ветра на теплоощущения человека.
Tes - Эффективная температура на солнце - температура, которую ощущает человек, с поправкой на солнечный нагрев. Характеристика знойности погоды. Зависит от высоты солнца над горизонтом, облачности и скорости ветра. Ночью, в пасмурную погоду, а также при ветре 12 м/с и более поправка равна нулю.
P - Атмосферное давление - приведенное к уровню моря атмосферное давление.
Po - Атмосферное давление - измеренное на уровне метеостанции атмосферное давление.
Tmin - Минимальная температура - минимум температуры воздуха на высоте 2 м над землей.
Tmax - Максимальная температура - максимум температуры воздуха на высоте 2 м над землей.
R - Количество осадков - Количество выпавших осадков за период времени, мм. При наведении курсора мыши на число - период времени, за который выпало указанное количество осадков.
R24 - Количество осадков - Количество выпавших осадков за 24 часа, мм.
S - Снежный покров - Высота снежного покрова, см. При наведении курсора мыши на число - состояние снежного покрова и степень покрытия местности в баллах.